User: anonymous   Login
Location: Brno
(49.2000°N, 16.6330°E)
Time: 18:00:27
(UTC+01:00)
Language:

Meteor 1-4 Rocket - Orbit

View from above orbital plane
View from above orbital plane
View from above satellite
View from above satellite

Ground track
Ground track

The orbit data is extracted from the following two-line orbital elements,

1  4394U 70037B   17347.94441647 +.00001239 +00000-0 +42570-4 0  9995
2  4394 081.2407 163.7249 0039490 229.1832 130.5977 15.28535114592696
Epoch (UTC): 13 December 2017 22:39:57
Eccentricity: 0.0039490
inclination: 81.2407°
perigee height: 453 km
apogee height: 507 km
right ascension of ascending node: 163.7249°
argument of perigee: 229.1832°
revolutions per day: 15.28535114
mean anomaly at epoch: 130.5977°
orbit number at epoch: 59269

The dashed part of the orbit path shows where the satellite is in the earth's shadow,  

DLR